#timestamp,LO_Frequency,Hit,StdDev 
1628877615.3,286046997.2,N
1628877635.2,286046997.0,N
1628877655.9,286046999.5,N
1628877675.7,286046996.6,N
1628877695.6,286046999.1,N
1628877715.4,286046999.0,N
1628877735.2,286046999.0,N
1628877755.1,286046999.0,N
1628877756.0,286046999.0,N
1628877775.8,286046999.5,N
1628877795.7,286046998.7,N
1628877815.5,286046998.3,N
1628877835.3,286046998.5,N
1628877855.2,286046998.5,N
1628877875.0,286046998.6,N
1628877875.9,286046998.6,N
1628877895.7,286046998.6,N
1628877915.6,286046998.9,N
1628877935.4,286046998.3,N
1628877955.3,286046998.3,N
1628877975.1,286046998.3,N
1628877976.0,286046998.3,N
1628877995.8,286046998.3,N
1628878015.7,286047000.9,N
1628878035.5,286047000.7,N
1628878055.3,286047000.8,N
1628878075.2,286046998.2,N
1628878095.0,286046998.1,N
1628878095.9,286046998.1,N
1628878115.8,286047000.8,N
1628878135.6,286047000.4,N
1628878155.4,286047000.9,N
1628878175.3,286047000.5,N
1628878195.1,286046999.9,N
1628878215.8,286047002.3,N
1628878235.7,286047000.4,N
1628878255.5,286046998.7,N
1628878275.4,286047001.1,N
1628878295.2,286047000.6,N
1628878315.0,286046999.9,N
1628878315.9,286046999.9,N
1628878335.8,286046999.8,N
1628878355.6,286047002.6,N
1628878375.4,286046999.7,N
1628878395.3,286047002.4,N
1628878415.1,286047002.7,N
1628878435.9,286047000.1,N
1628878455.7,286047002.7,N
1628878475.5,286047000.1,N
1628878495.4,286047000.1,N
1628878515.2,286047002.6,N
1628878535.0,286046999.8,N
1628878535.9,286046999.8,N
1628878585.8,286047000.8,E
1628878595.7,286047001.2,N
1628878615.6,286047001.1,P
1628878635.4,286047000.8,P
1628878655.2,286047000.6,Y
1628878675.1,286047000.8,P
1628878676.0,286047000.8,P
1628878695.8,286047000.9,P
1628878715.7,286046999.8,N
1628878735.5,286047000.9,N
1628878755.3,286046998.1,Y
1628878775.2,286046998.9,P
1628878795.0,286046999.0,N
1628878795.9,286046999.0,N
1628878815.7,286046999.0,N
1628878835.6,286046998.4,N
1628878855.4,286046998.9,N
1628878875.3,286046999.2,N
1628878895.1,286046999.4,N
1628878896.0,286046999.4,N
1628878915.8,286046997.2,Y
1628878935.7,286046998.3,P
1628878955.5,286046998.6,P
1628878975.3,286046998.7,P
1628878995.2,286046998.2,Y
1628879015.0,286047001.6,P
1628879015.9,286047001.6,N
1628879035.8,286047002.3,N
1628879055.6,286047002.3,N
1628879075.4,286047002.3,N
1628879095.3,286047000.4,N
1628879115.1,286047002.4,N
1628879135.9,286047002.8,N
1628879155.7,286047002.3,N
1628879175.5,286047002.4,N
1628879195.4,286047002.8,N
1628879215.2,286047000.1,N
1628879235.0,286047002.4,N
1628879235.9,286047002.4,N
1628879255.8,286047002.3,N
1628879275.6,286047002.3,N
1628879295.4,286047000.3,N
1628879315.3,286047002.8,N
1628879335.1,286046999.7,N
1628879355.9,286047002.0,N
1628879375.7,286046999.7,N
1628879395.5,286047002.5,N
1628879415.4,286047001.5,N
1628879435.2,286047001.3,N
1628879455.0,286047002.3,N
1628879455.9,286047002.3,N
1628879475.8,286047002.0,N
1628879495.6,286047002.2,N
1628879515.5,286047002.7,N
1628879535.3,286047002.8,N
1628879555.1,286047002.6,N
1628879575.9,286047001.9,N
1628879595.7,286047002.6,N
1628879615.5,286046999.7,N
1628879635.4,286047002.0,N
1628879655.2,286047003.7,Y
1628879675.1,286047003.8,P
1628879676.0,286047003.8,P
1628879695.8,286047003.3,P
1628879715.6,286047003.5,Y
1628879735.5,286047000.7,P
1628879755.3,286046996.6,N
1628879775.1,286046997.2,N
1628879795.9,286046997.3,N
1628879815.7,286046997.4,N
1628879835.6,286046997.4,N
1628879855.4,286046997.4,N
1628879875.2,286046997.3,N
1628879895.1,286046997.7,N
1628879896.0,286046997.7,N
1628879915.8,286046997.1,N
1628879935.6,286046997.4,N
1628879955.5,286046996.5,N
1628879975.3,286046997.2,N
1628879995.2,286046997.2,N
1628880015.9,286046998.9,N
1628880035.7,286046999.2,N
1628880055.6,286046999.5,N
1628880075.4,286046999.5,N
1628880095.2,286046997.0,N
1628880115.1,286046996.8,N
1628880116.0,286046996.8,N
1628880135.8,286046997.4,N
1628880155.7,286046997.9,N
1628880175.5,286046995.3,Y
1628880195.3,286046996.6,P
1628880215.2,286046999.3,N
1628880235.0,286047001.1,N
1628880235.9,286047001.1,N
1628880255.7,286046998.3,N
1628880275.6,286047000.6,N
1628880295.4,286046998.8,N
1628880315.3,286046997.0,N
1628880335.1,286046996.9,N
1628880336.0,286046996.9,N
1628880355.8,286046996.8,N
1628880375.7,286046997.8,N
1628880395.5,286046996.8,N
1628880415.3,286046999.4,N
1628880435.2,286046999.0,N
1628880455.0,286046998.8,N
1628880455.9,286046998.8,N
1628880475.8,286046998.8,N
1628880495.6,286046998.1,N
1628880515.4,286046998.2,N
1628880535.3,286047000.8,N
1628880555.1,286047001.0,N
1628880575.8,286046999.9,N
1628880595.7,286047002.3,N
1628880615.5,286046999.8,N
1628880635.4,286047002.5,N
1628880655.2,286047000.2,N
1628880675.0,286047000.6,N
1628880675.9,286047000.6,N
1628880695.8,286047000.3,N
1628880715.6,286047000.1,N
1628880735.5,286047000.0,N
1628880755.3,286047000.7,N
1628880775.1,286047000.2,N
1628880795.9,286047000.0,N
1628880815.7,286047002.7,N
1628880835.5,286047002.1,N
1628880855.4,286047004.4,N
1628880875.2,286047004.0,N
1628880895.0,286047001.5,N
1628880896.0,286047001.5,N
1628880915.8,286047002.4,N
1628880935.6,286047004.4,N
1628880955.5,286047003.9,N
1628880975.3,286047003.9,N
1628880995.1,286047004.1,N
1628881015.9,286047004.0,N
1628881035.7,286047003.8,N
1628881055.5,286047003.3,N
1628881075.4,286047004.7,N
1628881095.2,286047004.8,N
1628881115.1,286047004.7,N
1628881116.0,286047004.7,N
1628881135.8,286047004.9,N
1628881155.6,286047005.6,Y
1628881175.5,286047002.5,P
1628881195.3,286047002.1,P
